Thermopolis, WY

7:39 PM MDT on July 21, 2017 (GMT -0600)
Thermopolis

Weather History for KTBX - January, 2013

Change the Weather History Date:

Friday, January 4, 2013

  Actual Average (KWRL) Record (KWRL)
Temperature  
Mean Temperature 20 °F -  
Max Temperature 33 °F 25 °F 49 °F (1965)
Min Temperature 8 °F 0 °F -29 °F (1973)
Degree Days  
Heating Degree Days 44    
Moisture  
Dew Point -2 °F    
Average Humidity 37    
Maximum Humidity 67    
Minimum Humidity 21    
Precipitation  
Precipitation 0.00 in - - ()
Sea Level Pressure  
Sea Level Pressure 30.16 in    
Wind  
Wind Speed 9 mph (SE)    
Max Wind Speed 15 mph    
Max Gust Speed 18 mph    
Visibility 10 miles    
Events      
Averages and records for this station are not official NWS values.
T = Trace of Precipitation, MM = Missing Value Source: NWS Daily Summary

Daily Weather History Graph

Daily Weather History Graph

Search for Another Location

Airport or City:

Trip Planner

Search our weather history database for the weather conditions in past years. The results will help you decide how hot, cold, wet, or windy it might be!

Date:

Astronomy

Jan. 04, 2013 Rise Set
Actual Time 7:45 AM MST 4:50 PM MST
Civil Twilight 7:13 AM MST 5:23 PM MST
Nautical Twilight 6:37 AM MST 5:58 PM MST
Astronomical Twilight 6:02 AM MST 6:33 PM MST
Moon No Moon Rise 11:16 AM MST (1/4)
Length of Visible Light 10h 09m
Length of Day
9h 04m
Waning Gibbous, 54% of the Moon is Illuminated
Jan 4
Waning Gibbous
Jan 4
Last Quarter
Jan 11
New
Jan 18
First Quarter
Jan 26
Full

Hourly Weather History & Observations

Time (MST) Temp. Windchill Dew Point Humidity Pressure Visibility Wind Dir Wind Speed Gust Speed Precip Events Conditions
12:15 AM 21.2 °F 9.5 °F -7.6 °F 28% 30.22 in 10.0 mi SSE 11.5 mph - N/A   Clear
12:55 AM 19.4 °F 8.6 °F -4.0 °F 36% 30.21 in 10.0 mi SE 9.2 mph - N/A   Clear
1:15 AM 21.2 °F 10.9 °F -5.8 °F 30% 30.21 in 10.0 mi SSE 9.2 mph - N/A   Clear
1:35 AM 19.4 °F 7.9 °F -2.2 °F 39% 30.20 in 10.0 mi SSE 10.4 mph - N/A   Clear
1:55 AM 19.4 °F 7.2 °F 1.4 °F 46% 30.20 in 10.0 mi SE 11.5 mph - N/A   Clear
2:15 AM 19.4 °F 7.2 °F -0.4 °F 42% 30.20 in 10.0 mi SE 11.5 mph - N/A   Clear
2:35 AM 17.6 °F 6.4 °F -4.0 °F 38% 30.20 in 10.0 mi SSE 9.2 mph - N/A   Clear
4:55 AM 10.4 °F -4.8 °F -0.4 °F 62% 30.18 in 10.0 mi SSE 12.7 mph - N/A   Clear
5:15 AM 10.4 °F -4.1 °F -0.4 °F 62% 30.18 in 10.0 mi SSE 11.5 mph - N/A   Clear
5:35 AM 8.6 °F -7.0 °F -0.4 °F 67% 30.18 in 10.0 mi SSE 12.7 mph - N/A   Clear
5:55 AM 10.4 °F -4.8 °F -0.4 °F 62% 30.17 in 10.0 mi SE 12.7 mph 18.4 mph N/A   Clear
6:15 AM 12.2 °F -2.5 °F -0.4 °F 57% 30.17 in 10.0 mi SE 12.7 mph - N/A   Clear
6:35 AM 12.2 °F -3.1 °F -0.4 °F 57% 30.16 in 10.0 mi SSE 13.8 mph - N/A   Clear
7:15 AM 12.2 °F -3.1 °F -0.4 °F 57% 30.18 in 10.0 mi SE 13.8 mph - N/A   Clear
7:35 AM 12.2 °F -1.8 °F -0.4 °F 57% 30.17 in 10.0 mi SSE 11.5 mph - N/A   Clear
7:55 AM 15.8 °F 2.1 °F -0.4 °F 49% 30.17 in 10.0 mi SE 12.7 mph - N/A   Clear
8:15 AM 14.0 °F 0.5 °F -2.2 °F 49% 30.17 in 10.0 mi SSE 11.5 mph - N/A   Clear
8:35 AM 15.8 °F 0.9 °F -0.4 °F 49% 30.17 in 10.0 mi SE 15.0 mph - N/A   Clear
9:15 AM 12.2 °F -1.0 °F -2.2 °F 53% 30.18 in 10.0 mi SSE 10.4 mph - N/A   Clear
9:35 AM 17.6 °F 5.7 °F -0.4 °F 45% 30.18 in 10.0 mi SSE 10.4 mph - N/A   Clear
9:55 AM 21.2 °F 10.9 °F -0.4 °F 39% 30.18 in 10.0 mi SSE 9.2 mph - N/A   Clear
10:15 AM 21.2 °F 11.7 °F -0.4 °F 39% 30.18 in 10.0 mi SSE 8.1 mph - N/A   Clear
10:35 AM 19.4 °F 10.4 °F -2.2 °F 39% 30.18 in 10.0 mi SSE 6.9 mph - N/A   Clear
11:15 AM 19.4 °F 9.5 °F -0.4 °F 42% 30.18 in 10.0 mi SSE 8.1 mph - N/A   Clear
11:35 AM 21.2 °F 12.6 °F -0.4 °F 39% 30.16 in 10.0 mi SSE 6.9 mph - N/A   Clear
12:15 PM 24.8 °F 16.9 °F -2.2 °F 31% 30.15 in 10.0 mi SSE 6.9 mph - N/A   Clear
12:35 PM 23.0 °F 14.7 °F -0.4 °F 36% 30.14 in 10.0 mi SE 6.9 mph - N/A   Clear
12:55 PM 23.0 °F 13.9 °F -0.4 °F 36% 30.13 in 10.0 mi SE 8.1 mph - N/A   Clear
1:15 PM 23.0 °F 13.9 °F -0.4 °F 36% 30.12 in 10.0 mi SE 8.1 mph - N/A   Clear
1:35 PM 24.8 °F 17.9 °F -0.4 °F 34% 30.12 in 10.0 mi SE 5.8 mph - N/A   Clear
1:55 PM 23.0 °F 15.8 °F 1.4 °F 39% 30.12 in 10.0 mi SE 5.8 mph - N/A   Clear
2:15 PM 26.6 °F 21.2 °F -4.0 °F 26% 30.12 in 10.0 mi ENE 4.6 mph - N/A   Clear
2:55 PM 28.4 °F 23.3 °F -2.2 °F 27% 30.12 in 10.0 mi ENE 4.6 mph - N/A   Clear
3:15 PM 26.6 °F 18.2 °F -0.4 °F 31% 30.12 in 10.0 mi SE 8.1 mph - N/A   Clear
3:35 PM 32.0 °F 25.6 °F -4.0 °F 21% 30.12 in 10.0 mi ESE 6.9 mph - N/A   Clear
3:55 PM 26.6 °F 18.2 °F -4.0 °F 26% 30.12 in 10.0 mi ESE 8.1 mph - N/A   Clear
4:15 PM 26.6 °F 20.0 °F -4.0 °F 26% 30.13 in 10.0 mi ESE 5.8 mph - N/A   Clear
4:35 PM 26.6 °F 19.1 °F -4.0 °F 26% 30.13 in 10.0 mi SE 6.9 mph - N/A   Clear
4:55 PM 26.6 °F 19.1 °F -4.0 °F 26% 30.13 in 10.0 mi SE 6.9 mph - N/A   Clear
5:15 PM 28.4 °F 20.4 °F -4.0 °F 25% 30.13 in 10.0 mi SE 8.1 mph - N/A   Clear
5:35 PM 28.4 °F 22.2 °F -4.0 °F 25% 30.14 in 10.0 mi ESE 5.8 mph - N/A   Clear
5:55 PM 30.2 °F 23.4 °F -4.0 °F 23% 30.14 in 10.0 mi ESE 6.9 mph - N/A   Clear
6:15 PM 32.0 °F - -2.2 °F 23% 30.15 in 10.0 mi Calm Calm - N/A   Clear
6:35 PM 33.8 °F - 1.4 °F 25% 30.16 in 10.0 mi Calm Calm - N/A   Clear
6:55 PM 32.0 °F 27.5 °F -2.2 °F 23% 30.16 in 10.0 mi ESE 4.6 mph - N/A   Clear
7:15 PM 32.0 °F 27.5 °F -4.0 °F 21% 30.16 in 10.0 mi ESE 4.6 mph - N/A   Clear
7:35 PM 32.0 °F 27.5 °F -4.0 °F 21% 30.16 in 10.0 mi ESE 4.6 mph - N/A   Clear
8:15 PM 32.0 °F 26.4 °F -2.2 °F 23% 30.16 in 10.0 mi ESE 5.8 mph - N/A   Clear
8:35 PM 26.6 °F 18.2 °F -4.0 °F 26% 30.15 in 10.0 mi SE 8.1 mph - N/A   Clear
8:55 PM 24.8 °F 16.1 °F -0.4 °F 34% 30.16 in 10.0 mi SE 8.1 mph - N/A   Clear
9:15 PM 24.8 °F 16.1 °F -0.4 °F 34% 30.16 in 10.0 mi SE 8.1 mph - N/A   Clear
9:35 PM 26.6 °F 18.2 °F -0.4 °F 31% 30.16 in 10.0 mi SE 8.1 mph - N/A   Clear
9:55 PM 30.2 °F 24.3 °F -2.2 °F 25% 30.16 in 10.0 mi SE 5.8 mph - N/A   Clear
10:15 PM 26.6 °F 20.0 °F -0.4 °F 31% 30.16 in 10.0 mi SSE 5.8 mph - N/A   Clear
10:35 PM 30.2 °F 21.9 °F -2.2 °F 25% 30.16 in 10.0 mi SSE 9.2 mph - N/A   Clear
10:55 PM 26.6 °F 16.8 °F -2.2 °F 29% 30.15 in 10.0 mi SSE 10.4 mph - N/A   Clear
11:15 PM 26.6 °F 17.5 °F -0.4 °F 31% 30.15 in 10.0 mi SSE 9.2 mph - N/A   Clear
11:35 PM 23.0 °F 12.4 °F 1.4 °F 39% 30.14 in 10.0 mi SSE 10.4 mph - N/A   Clear
11:55 PM 23.0 °F 13.1 °F 1.4 °F 39% 30.14 in 10.0 mi SSE 9.2 mph - N/A   Clear